PROFILE

 METAR AND TAF INFORMATION
ADDS - METARS form results

(0611 UTC 26 January 2021)
http://aviationweather.gov/metar/data/
 
LFLL 260600Z 35002KT 9999 FEW026 M02/M03 Q1023 NOSIG
LFLL 260530Z 34001KT 9999 FEW026 M02/M03 Q1023 NOSIG
TAF LFLL 260500Z 2606/2712 34006KT CAVOK PROB30 TEMPO 2606/2609 BKN014 BECMG 2617/2619 VRB02KT BECMG 2622/2624 12005KT BECMG 2709/2711 -RA OVC025 

 AIRPORT MAP

 RUNWAY INFORMATION
Runway 18L Runway length 8760 ft Runway width 148 ft
Runway elevation 780 ft Runway displaced threshold 0 ft Runway heading 175
Runway 36R Runway length 8760 ft Runway width 148 ft
Runway elevation 821 ft Runway displaced threshold 0 ft Runway heading 355
Runway 18R Runway length 13124 ft Runway width 148 ft
Runway elevation 758 ft Runway displaced threshold 0 ft Runway heading 175
Runway 36L Runway length 13124 ft Runway width 148 ft
Runway elevation 813 ft Runway displaced threshold 0 ft Runway heading 355

 AIRPORT FREQUENCIES
Type A/D Name Lyon appro Frequency 136.075 MHZ
Type ATIS Name ATIS Frequency 126.175 MHZ
Type GND Name GND Frequency 121.825 MHZ
Type INFO Name INFO Frequency 135.2 MHZ
Type PFLT Name PREFLIGHT Frequency 121.7 MHZ
Type TWR Name TWR Frequency 120.45 MHZ

 AIRPORT NEAR NAVIGATION AIDS
Type VOR-DME Name Lyon/Saint Exupery Frequency 114750 KHZ